Вернуться в каталог

COSMOS 1894

АктивенВоенныеGEO
NORAD 18443·PAYLOAD·🇷🇺 Russia

Запущен Oct 28, 1987 с Baikonur Cosmodrome

Loading…

TLE

СвежийSource: Space-Track

Эпоха: Sep 14, 2026, 01:38 UTC

1 18443U 87091A   26257.06872338 -.00000277  00000-0  00000-0 0  9991
2 18443  10.6314 324.9954 0002819  17.9647 357.3082  1.00225153121716

Отслеживайте COSMOS 1894 в реальном времени с AllMySat

Download on the App Store